Voltar ao catálogo

FENGYUN 1C DEB

AtivoPO
NORAD 31236·DEBRIS·🇨🇳 China

Lançado May 10, 1999 de Taiyuan Satellite Launch Center

Loading…

Próximas Passagens (próximas 24 horas)

TLE

AtualizadoSource: Space-Track

Época: Sep 13, 2026, 18:35 UTC

1 31236U 99025BLS 26256.77436424  .00005443  00000-0  30943-2 0  9995
2 31236  98.5435 194.1820 0308224  11.3685 349.4235 13.88946062648396

Acompanhe FENGYUN 1C DEB em tempo real com AllMySat

Download on the App Store